Wind_Speed
44 44 44 43 43 42 42 41 41 40 39 38 37 36 36 35 34 33 32 31 30 29 29 28 27 25 23 21 20 19 19 20 21 21 21 21 22 23 24 26 27 28 29 29 29 28 27 26 25 24 24 23 22 20 20 19 19 19 18 18 17 18 18 19 19 19 19 20 19
45 45 45 44 43 42 42 42 41 41 40 39 38 38 37 36 35 34 33 32 31 29 28 27 26 24 22 20 19 18 18 19 20 20 20 20 20 20 21 23 25 26 27 27 27 26 26 25 25 24 23 22 21 21 20 20 20 19 18 17 17 19 20 21 20 19 20 20 20
46 45 45 44 43 43 42 42 42 41 41 40 40 39 38 37 36 35 34 33 31 29 28 27 26 23 21 19 18 17 17 18 19 19 20 20 19 19 20 21 23 24 25 24 24 23 22 22 22 22 21 21 20 20 20 20 19 19 18 18 19 21 22 22 20 20 20 20 21
46 45 45 45 44 44 44 43 43 42 41 41 40 39 39 38 37 36 34 33 31 30 29 27 25 23 20 18 17 16 16 17 17 18 19 19 19 19 19 19 21 23 23 22 20 18 17 16 16 16 16 15 15 16 16 16 17 18 19 20 22 23 23 21 20 20 20 20 21
46 46 46 46 46 45 45 44 43 42 41 41 40 39 39 38 38 36 35 33 32 31 29 27 25 22 20 18 16 16 15 16 16 17 18 18 19 18 18 18 20 21 22 21 20 17 15 15 15 15 14 12 11 11 12 13 16 19 22 23 23 23 22 21 21 20 20 20 21
46 46 46 46 46 45 44 44 43 42 42 41 40 39 39 38 38 37 35 34 32 30 28 26 24 21 19 17 16 15 15 15 15 16 17 18 18 18 18 18 18 19 21 21 21 20 19 19 19 20 18 16 12 11 12 13 16 20 23 23 22 21 21 21 20 19 19 20 21
47 46 46 46 46 45 44 43 43 42 42 41 40 39 39 38 38 37 35 34 32 30 28 26 24 21 19 17 15 14 14 14 14 15 16 17 17 17 17 17 17 18 18 20 20 21 21 22 23 24 23 20 15 13 14 15 18 20 22 21 20 20 21 21 20 19 19 20 21
46 46 46 45 45 44 44 43 43 42 42 41 40 39 39 38 37 36 35 33 32 30 28 26 23 21 18 16 14 13 13 13 13 14 15 16 16 16 17 17 16 16 16 17 18 19 19 20 22 23 22 18 15 14 15 17 19 20 19 19 19 20 21 21 20 19 20 21 22
45 45 45 45 44 44 44 43 43 42 41 41 40 39 38 38 37 36 34 33 31 29 27 25 23 20 18 16 14 13 12 12 13 13 14 15 15 15 16 16 16 15 15 14 14 14 15 16 18 18 16 14 14 15 17 18 19 19 18 18 19 20 21 20 19 19 20 21 22
45 45 45 44 44 44 43 43 42 42 41 40 40 39 38 37 36 35 33 32 30 28 27 25 22 20 18 15 13 12 12 12 12 13 14 14 14 14 15 15 15 15 14 13 13 13 13 14 14 13 13 14 17 20 20 19 18 18 18 19 20 20 19 18 18 19 21 22 22
45 45 44 44 44 43 42 42 41 41 41 40 40 39 38 37 36 34 32 30 29 28 26 24 21 19 17 15 13 12 12 12 12 13 13 13 13 13 13 14 14 14 13 13 13 15 16 16 14 13 14 17 19 20 18 16 16 17 18 19 19 18 17 17 18 20 21 21 21
45 45 44 43 43 42 42 41 41 40 40 40 40 40 39 38 36 34 32 30 29 27 25 22 20 18 16 14 13 12 12 12 12 12 12 12 13 13 13 13 13 13 12 12 14 17 18 18 16 15 16 17 16 15 14 14 16 17 19 19 17 16 17 18 19 19 20 20 20
45 44 43 42 42 41 41 41 40 40 40 40 40 40 39 37 35 33 32 30 29 27 24 22 19 17 15 13 12 12 12 12 12 12 12 12 12 13 13 13 13 12 11 11 13 15 16 14 14 13 14 14 13 13 14 15 17 18 18 18 17 17 17 17 18 19 19 20 20
44 43 42 42 41 41 40 40 40 40 40 40 40 39 38 37 35 33 32 30 28 26 24 21 19 16 15 13 12 12 12 12 13 13 13 13 13 13 13 13 13 12 11 10 11 12 12 11 11 12 13 13 13 14 15 16 17 18 17 17 16 16 16 17 18 19 19 20 19
43 42 42 41 41 40 40 40 40 40 40 40 40 39 37 36 34 33 31 30 28 26 23 21 19 16 15 13 12 12 12 13 13 13 13 13 13 13 13 13 13 12 11 10 11 11 11 11 12 13 13 13 13 14 16 17 17 16 15 14 14 15 15 17 18 19 19 19 19
43 42 42 41 41 40 40 40 40 40 40 40 40 38 37 35 34 32 31 29 28 25 23 21 19 17 15 14 13 13 13 13 14 14 14 14 14 14 14 13 13 12 12 12 12 12 13 13 13 13 13 13 14 15 17 17 15 14 13 13 14 15 16 17 18 18 18 18 17
42 42 42 41 41 41 41 40 39 40 40 40 39 38 36 35 34 32 31 29 27 25 23 21 19 17 15 14 14 14 14 14 14 14 14 13 13 13 13 13 14 14 14 14 14 14 14 13 13 13 12 13 15 17 16 14 13 12 12 13 15 16 17 18 18 17 16 16 15
43 42 42 41 41 41 41 40 40 40 40 39 38 37 36 35 33 32 30 28 26 24 22 20 19 17 15 15 15 15 15 15 14 14 13 12 12 12 13 14 15 15 16 15 14 14 13 12 12 12 13 15 16 15 13 12 12 12 13 15 16 16 17 16 16 15 14 14 13
43 43 42 42 41 41 41 41 41 40 39 37 36 36 35 34 33 31 29 27 25 24 22 20 18 17 16 16 16 15 15 14 13 12 12 11 11 12 13 15 16 16 16 15 14 13 12 12 12 13 15 15 14 13 12 12 12 14 14 15 16 15 15 14 13 13 12 12 12
43 43 43 43 42 41 41 40 40 40 38 35 34 34 33 33 32 30 28 27 25 23 21 20 18 17 16 16 16 15 14 13 12 11 11 11 12 13 14 16 17 17 16 15 14 13 13 13 13 14 15 14 13 12 12 13 13 14 14 14 14 13 12 11 11 11 11 12 12
43 42 42 42 42 41 41 40 40 38 36 34 33 33 32 31 30 29 28 26 24 23 21 19 18 17 16 16 15 15 14 13 12 11 11 12 13 14 15 16 17 16 15 15 14 15 15 14 14 14 14 14 13 13 13 13 13 13 13 12 12 11 10 10 10 10 11 12 13
42 41 40 40 40 40 39 39 38 36 34 33 32 32 31 30 29 28 26 25 24 22 21 19 18 17 16 16 15 14 14 13 13 12 12 13 14 15 15 16 16 16 15 15 16 17 16 15 14 15 15 14 13 13 12 12 12 11 12 11 11 11 10 10 10 11 12 12 12
41 40 39 38 39 38 38 37 35 34 33 32 32 31 30 29 28 26 25 25 23 22 20 18 17 17 16 15 15 14 14 14 14 14 14 14 15 15 15 15 15 15 15 16 17 17 15 14 15 15 14 13 13 12 12 11 11 11 11 11 11 11 11 11 11 11 11 11 11
40 39 37 36 36 36 35 35 34 33 32 32 31 31 29 28 27 26 25 24 23 21 20 18 18 17 16 16 15 15 15 15 16 16 15 15 15 15 15 15 15 16 16 17 16 14 13 14 14 14 13 13 12 11 11 10 11 11 11 11 11 11 10 10 10 10 9 9 8
38 37 36 35 35 35 34 34 33 32 32 31 31 30 29 28 27 26 25 24 22 21 20 19 18 18 17 17 16 15 16 16 16 16 16 16 15 15 15 15 16 16 16 15 13 12 12 13 13 13 13 12 11 10 10 10 10 11 11 10 10 9 8 8 7 7 6 5 5
37 36 35 35 35 34 33 33 33 32 32 31 30 30 29 28 27 25 24 24 23 21 21 20 19 19 18 18 16 16 17 17 17 16 16 16 16 16 16 17 17 16 14 13 12 11 12 12 12 12 11 11 10 9 9 9 10 9 9 8 7 6 6 6 5 4 4 3 3
37 36 35 35 34 34 33 33 33 32 32 31 31 30 29 28 26 25 24 24 23 22 22 21 20 20 19 18 17 17 18 19 18 17 16 16 16 17 18 18 16 15 13 12 12 12 12 12 12 11 10 9 8 8 8 9 8 7 6 5 5 5 4 4 3 2 2 2 2
38 37 36 35 34 34 33 33 33 32 32 31 31 30 28 27 26 26 25 25 24 23 22 22 21 20 20 19 18 19 19 19 18 17 16 16 17 17 18 17 16 14 13 12 12 13 13 12 11 10 9 8 8 8 8 7 6 5 4 4 3 3 2 1 1 1 1 1 1
38 37 37 36 35 34 34 34 33 33 32 31 30 29 28 27 27 26 26 26 25 24 23 23 22 22 21 20 20 20 20 19 18 17 17 17 17 18 17 16 15 14 13 13 14 14 13 12 11 9 8 8 8 7 6 5 4 4 3 3 2 2 1 0 1 1 0 0 0
38 38 37 36 36 35 34 34 34 33 32 31 30 29 28 28 27 27 27 26 25 24 24 24 23 22 21 21 21 21 20 19 18 17 17 18 18 18 17 16 14 13 14 14 15 15 14 12 10 9 8 8 7 6 5 4 4 3 3 2 2 2 1 1 1 1 1 1 1
38 38 38 37 36 36 35 35 34 33 32 31 30 29 29 29 28 28 27 27 25 24 24 24 23 22 21 21 21 21 20 19 18 17 18 18 19 18 17 15 14 14 15 16 16 15 13 11 10 9 9 8 6 5 4 4 3 3 3 2 2 2 2 2 1 1 1 1 1
39 39 38 38 37 36 35 34 34 33 32 31 30 30 30 29 29 28 27 26 25 24 25 24 23 22 21 21 21 21 20 18 17 17 18 19 19 18 17 16 15 16 17 18 17 15 13 11 11 10 9 6 5 4 3 3 3 3 3 3 3 3 3 2 2 2 2 1 0
39 39 39 38 38 37 36 34 33 32 32 31 31 31 30 30 29 29 27 26 25 25 25 24 23 22 21 22 22 21 19 18 18 18 18 18 18 18 17 17 17 17 18 18 17 15 13 12 11 9 7 5 3 3 4 4 4 4 4 4 4 4 4 3 3 2 2 1 0
40 40 39 39 38 37 35 34 33 33 32 32 32 31 31 31 30 29 28 26 26 25 25 24 22 21 21 22 21 20 19 19 19 18 18 18 18 19 19 19 19 18 19 18 16 14 13 12 10 8 5 3 3 3 4 5 5 5 5 5 5 5 4 4 3 3 2 1 0
40 40 39 39 38 37 35 34 34 33 33 33 33 32 32 32 31 29 28 27 27 26 25 23 22 22 22 21 20 19 19 20 20 19 19 18 19 20 21 20 19 19 19 17 15 14 12 11 8 6 4 3 3 4 5 6 6 6 6 6 5 5 5 4 3 2 1 0 2
40 40 39 38 37 36 35 35 34 34 34 34 34 34 33 32 30 29 28 28 28 27 26 24 23 23 23 22 20 20 21 22 22 21 20 19 20 21 21 20 20 20 18 16 15 14 12 9 7 5 4 3 4 5 6 6 7 7 7 6 6 6 5 4 2 1 1 2 3
40 40 39 38 37 36 35 35 34 34 35 35 35 35 34 32 30 29 28 29 29 28 26 25 25 25 24 22 21 21 22 23 23 22 21 21 21 21 21 21 21 19 17 16 15 13 11 8 6 4 4 5 6 7 7 7 7 7 7 7 6 5 4 3 1 0 2 3 4
40 39 38 37 36 36 35 35 35 35 35 36 36 35 33 31 30 29 30 30 29 27 26 26 27 26 24 22 22 23 23 23 23 22 22 21 21 21 21 21 20 18 17 16 14 12 9 7 5 5 6 6 7 7 7 8 8 8 8 7 6 5 3 2 0 1 3 4 5
38 37 36 36 35 35 35 35 35 36 36 37 37 35 33 31 30 31 31 30 28 26 26 27 27 26 24 23 24 24 24 23 23 22 22 22 21 21 21 20 19 17 16 15 12 10 8 6 6 7 8 8 8 8 8 8 8 8 8 7 5 4 2 1 1 2 3 4 5
37 36 35 34 34 35 35 35 36 37 38 38 37 35 33 31 31 32 31 29 27 25 26 27 27 26 25 25 25 25 25 23 23 22 22 22 21 20 19 17 16 15 14 13 11 9 7 7 8 9 9 9 9 8 8 8 8 8 7 6 4 3 1 1 1 2 3 4 5
36 35 35 35 35 35 36 37 38 39 40 39 37 35 33 32 33 32 31 29 27 26 27 28 27 26 26 27 26 26 25 24 23 23 23 22 20 18 16 14 13 12 12 11 9 9 9 9 10 10 10 10 9 9 8 8 7 7 6 4 3 1 1 1 2 2 3 4 5
Wind_Direction
223 225 227 228 230 231 233 235 237 238 240 241 242 244 245 247 247 247 248 248 248 249 250 251 252 253 254 255 254 254 253 252 251 251 251 250 248 246 245 244 245 246 248 249 250 250 250 249 248 247 248 250 254 257 261 262 261 259 257 255 255 258 260 259 258 259 261 264 267
223 225 227 228 229 231 232 234 236 238 240 242 243 245 246 248 248 249 249 250 251 252 253 253 254 255 257 258 259 259 257 255 253 252 251 251 250 248 246 244 245 246 248 250 251 251 250 250 249 249 249 250 251 254 256 258 258 257 255 254 256 259 261 261 259 260 262 264 267
222 224 226 227 229 230 232 233 235 237 239 241 243 245 246 248 249 250 250 252 252 253 254 255 257 258 260 261 261 260 259 257 255 252 251 249 249 248 246 244 244 246 248 251 253 252 250 248 247 248 248 249 249 250 252 253 253 253 253 254 257 260 262 262 261 261 263 265 267
222 223 225 227 228 230 232 234 235 237 239 240 242 244 246 248 249 250 251 252 253 254 255 256 258 260 261 262 261 261 259 258 255 253 251 249 246 246 246 245 244 245 248 251 253 252 250 245 241 240 241 243 246 249 250 251 252 253 254 256 258 261 263 265 265 265 266 269 270
221 223 225 227 229 231 233 235 236 237 239 240 241 243 245 247 248 249 250 251 252 254 255 257 259 260 262 262 261 260 259 256 254 252 250 248 246 245 245 245 245 246 248 250 252 253 251 246 242 238 237 240 247 254 256 257 259 260 260 260 262 265 268 269 268 269 272 274 275
221 223 225 227 229 231 232 233 235 237 239 240 241 242 244 246 247 248 249 250 252 254 255 257 259 260 261 260 260 259 257 255 253 251 249 248 245 244 244 245 245 246 248 250 251 252 252 250 248 245 241 239 246 257 263 263 265 266 265 265 267 270 273 272 272 274 276 277 277
222 223 224 226 228 229 230 232 234 236 238 240 241 242 244 246 247 248 249 251 253 254 255 257 259 260 260 259 258 257 255 253 251 249 248 246 244 242 242 243 245 247 247 249 250 251 251 251 251 248 243 238 243 254 261 262 265 266 266 268 270 272 273 273 274 275 276 277 278
222 223 224 225 227 228 229 230 232 234 237 239 241 243 244 245 247 248 250 251 252 254 255 257 259 260 260 260 258 256 253 251 249 247 245 244 242 241 241 242 244 245 246 247 248 248 248 251 253 250 244 239 243 249 255 259 261 263 264 266 270 271 272 271 272 273 275 277 277
221 222 223 225 226 227 228 230 231 234 236 239 241 243 244 245 246 247 249 250 252 254 256 258 259 260 260 259 257 253 250 248 247 245 243 242 240 239 239 240 241 242 241 241 239 237 240 247 253 252 246 242 241 243 247 252 256 258 261 264 268 269 270 271 274 276 276 275 274
220 222 223 223 225 226 227 229 231 234 236 239 241 242 243 244 245 247 248 250 252 254 255 257 259 259 259 257 254 250 247 244 243 242 241 239 238 237 237 238 238 238 237 234 230 229 233 241 247 248 243 240 240 242 245 248 251 255 258 262 264 267 271 275 276 276 274 273 273
221 222 222 223 224 225 226 227 230 233 236 238 240 241 242 243 244 246 247 249 251 253 255 257 258 258 258 256 252 247 243 241 239 238 237 235 234 234 235 236 235 234 232 231 233 236 237 237 236 237 239 242 244 245 246 246 249 252 257 260 263 267 271 273 273 272 271 273 276
221 222 222 223 223 224 225 227 229 232 235 237 239 240 241 242 243 244 246 247 249 252 254 256 256 257 256 253 248 244 240 236 235 233 232 230 229 230 231 232 232 229 226 229 238 243 242 237 233 235 240 245 247 247 246 245 248 253 257 260 262 264 265 266 268 270 273 276 278
221 221 221 222 222 223 224 227 229 232 234 236 238 239 240 241 242 243 245 247 249 251 253 254 255 254 253 249 244 239 236 233 230 227 225 224 224 225 226 227 226 222 220 227 240 246 245 239 236 237 240 243 243 242 242 244 249 253 257 257 258 258 260 263 267 270 273 274 276
219 220 220 221 221 223 225 227 229 231 233 235 236 238 238 239 240 242 244 246 249 251 252 252 252 251 248 244 239 234 231 228 225 222 220 219 220 221 222 223 220 216 217 227 239 243 242 237 234 233 234 234 233 234 238 245 250 253 253 253 255 257 261 264 266 268 269 271 274
218 218 219 220 221 223 225 227 229 231 232 234 235 236 236 237 239 241 243 245 247 249 250 250 249 247 244 239 233 228 226 224 221 218 217 217 218 220 220 218 214 212 215 225 229 229 225 223 223 225 226 226 228 233 241 247 250 249 249 251 255 258 261 262 264 266 268 272 275
216 217 218 219 221 223 225 226 228 229 231 233 234 235 234 235 237 239 241 243 245 246 247 247 245 243 238 232 226 222 220 219 217 216 217 218 220 221 219 215 208 207 210 216 215 211 210 211 214 218 222 225 233 241 246 247 246 245 247 251 255 257 259 261 263 266 270 274 278
214 216 217 219 221 224 225 226 226 228 230 232 233 233 233 234 236 238 240 242 243 244 244 243 241 237 232 226 220 216 215 215 215 216 218 222 224 223 219 212 204 201 203 205 204 203 203 206 209 215 223 233 241 245 244 242 241 243 248 252 254 256 258 261 265 269 273 276 278
214 215 217 219 221 223 225 226 226 228 229 230 231 232 232 234 235 237 239 240 241 241 241 239 236 232 226 219 215 213 212 212 213 216 219 224 226 224 218 209 201 196 196 197 199 202 205 208 213 221 231 239 241 240 238 236 238 242 247 250 252 255 258 262 266 270 274 276 278
214 215 217 220 222 223 225 225 227 228 229 228 228 230 231 233 235 237 238 239 239 239 238 235 232 226 219 214 211 210 210 211 212 215 218 221 221 218 212 205 198 193 192 196 202 208 213 217 224 232 237 238 236 233 231 233 236 240 242 246 249 253 258 264 268 271 273 276 280
215 216 218 220 222 223 224 224 226 227 227 225 226 227 229 232 234 236 236 237 237 236 234 231 226 220 213 209 208 208 208 208 209 211 213 213 211 209 205 200 195 192 192 196 204 211 217 224 231 236 238 237 234 231 229 230 231 234 238 242 248 253 259 264 267 269 272 277 282
215 216 218 220 221 222 223 224 224 224 223 223 223 225 228 230 232 234 234 235 234 232 230 226 221 214 209 207 206 206 204 204 203 203 203 203 202 201 199 196 193 191 191 196 206 214 220 223 229 233 234 233 231 228 225 225 227 232 238 244 250 254 258 260 263 267 272 277 282
215 216 217 218 219 220 220 222 221 220 220 220 222 224 226 228 230 231 231 231 230 229 225 220 214 209 207 206 205 203 201 199 198 197 196 196 196 196 195 194 192 190 192 202 213 219 220 219 223 226 226 223 221 220 221 224 230 236 243 248 252 254 256 260 265 269 274 280 285
216 215 215 215 216 217 217 218 218 218 218 218 220 222 224 226 227 227 227 226 226 224 220 214 207 204 204 205 205 202 199 196 194 193 193 194 194 194 193 192 192 194 202 213 219 218 216 216 219 219 217 214 215 217 221 227 233 239 244 249 253 257 261 266 270 274 279 284 289
213 212 211 211 212 214 214 214 215 215 216 216 218 219 221 222 223 223 222 222 221 218 213 206 200 199 200 202 203 201 198 195 192 191 191 193 195 194 193 194 199 207 213 216 215 212 211 215 217 215 213 213 215 217 221 227 234 240 247 253 259 264 269 273 276 280 285 292 300
209 209 208 209 210 211 211 212 212 213 213 214 216 217 218 219 219 219 218 217 215 211 206 200 196 196 198 199 199 198 195 193 191 190 191 193 195 197 199 204 209 212 211 208 204 204 209 215 216 215 214 214 213 215 220 228 237 246 254 262 267 271 274 277 281 286 294 306 319
207 206 206 207 208 209 209 209 211 211 211 212 214 215 216 216 216 216 214 212 209 205 201 197 195 195 196 196 195 193 191 191 191 192 192 193 196 202 208 211 209 205 200 198 199 204 210 214 215 213 209 207 208 213 223 234 245 255 262 269 273 275 275 275 278 290 309 329 341
205 204 204 205 206 207 207 208 209 209 210 211 212 213 214 214 213 212 211 208 205 201 197 195 195 195 195 194 192 189 188 189 191 193 195 197 202 208 210 206 199 194 194 197 203 208 211 212 209 203 199 199 208 221 235 245 254 260 267 271 273 271 270 270 278 306 338 350 351
205 204 203 204 204 205 205 206 206 207 208 209 210 211 212 211 210 209 208 205 202 198 195 193 193 194 193 191 189 188 187 188 190 194 197 201 207 207 203 195 191 191 195 201 206 208 207 204 198 192 194 204 221 235 245 252 258 265 268 267 263 258 255 262 311 358 6 358 342
204 203 202 202 202 203 203 204 204 205 207 208 209 210 210 209 208 207 206 203 200 196 193 191 191 191 190 189 188 188 188 189 190 194 199 203 205 200 194 190 190 192 197 201 203 202 198 193 189 190 201 218 233 243 250 257 262 263 256 247 235 221 195 114 63 45 35 310 247
202 202 201 201 201 201 201 202 203 204 205 206 207 208 208 207 207 206 205 202 198 194 192 191 190 190 189 188 188 188 189 189 191 196 200 202 199 193 189 190 191 194 197 198 196 192 188 185 189 200 215 226 235 244 252 257 254 244 228 208 183 155 128 115 121 138 164 195 216
200 200 200 199 199 199 200 201 202 202 203 205 205 206 206 206 206 206 203 200 196 193 192 191 190 189 188 188 189 189 188 188 191 196 199 199 193 189 188 191 193 195 195 192 187 184 183 188 200 212 223 229 235 243 247 242 228 210 185 160 143 134 133 140 153 167 179 195 216
199 199 198 198 198 198 199 199 200 201 202 203 204 205 206 206 206 204 201 197 193 191 190 190 189 188 188 188 189 188 186 186 190 194 196 194 190 188 189 192 195 195 190 185 180 180 185 197 210 219 225 228 232 233 226 209 190 170 152 141 137 139 146 153 160 169 174 182 199
197 197 197 197 197 197 197 198 199 200 201 202 203 204 205 205 204 202 198 195 192 190 190 189 188 187 187 187 187 185 183 184 188 191 192 190 187 188 191 195 196 191 184 179 177 182 192 205 216 222 225 225 221 208 193 178 161 150 142 139 140 143 149 154 158 159 159 157 190
196 196 195 196 196 196 197 197 198 199 200 201 202 203 204 203 201 198 195 192 190 190 189 189 187 185 185 186 185 183 182 184 186 187 186 185 187 191 195 196 192 185 179 176 179 189 201 212 218 222 223 217 199 181 167 156 146 140 138 139 142 145 149 151 153 152 152 153 318
195 194 194 195 195 196 196 196 197 198 199 200 201 202 202 202 199 196 192 190 189 188 188 187 185 184 184 185 184 184 184 185 185 182 181 184 190 195 196 193 185 178 175 178 186 197 207 215 219 222 221 206 181 163 153 146 140 138 139 142 145 148 151 152 153 153 160 297 328
195 194 194 194 195 196 196 196 196 197 198 199 200 200 200 198 196 194 191 189 188 187 186 185 184 184 184 184 185 187 189 188 184 179 180 187 194 196 193 185 177 174 176 184 194 203 210 214 218 220 212 188 165 153 146 142 140 140 142 146 149 150 151 153 155 162 302 327 333
196 196 195 195 195 196 196 196 196 196 197 198 199 198 197 195 193 192 191 190 188 187 186 185 185 185 184 184 187 190 192 190 184 179 182 189 195 193 186 178 174 176 182 192 200 206 209 211 212 205 187 165 153 146 142 140 141 143 146 150 151 151 151 151 156 324 331 335 338
197 197 197 196 196 196 196 197 197 197 197 197 197 197 195 193 191 191 190 190 189 188 187 187 186 185 184 186 190 192 192 189 184 181 184 189 190 187 181 177 178 183 190 197 202 205 206 202 192 175 159 148 142 140 139 140 142 145 149 152 152 150 147 142 45 343 341 341 343
198 198 198 198 198 197 197 197 198 198 197 197 196 194 192 191 190 189 189 189 190 190 189 189 187 185 185 189 191 190 187 184 183 183 184 184 183 181 181 181 185 189 195 198 201 200 195 182 166 153 145 140 138 137 138 140 145 148 151 154 154 151 141 110 10 352 345 343 344
199 199 200 200 199 199 198 198 198 198 198 196 193 191 190 189 189 188 188 189 191 191 191 190 186 185 186 190 189 185 180 179 179 180 179 176 176 179 183 188 190 193 194 195 195 188 176 161 151 145 141 138 138 138 140 144 149 151 152 154 155 149 128 55 9 356 348 345 344
199 199 199 199 199 199 199 198 197 197 195 193 191 189 188 187 187 186 187 189 191 192 192 189 186 185 187 187 184 180 176 174 174 172 171 170 173 179 186 191 192 192 191 189 183 171 159 150 144 141 139 139 140 141 144 150 154 154 151 149 147 135 89 34 11 358 352 350 352
Height
1452 1453 1454 1455 1456 1458 1459 1459 1461 1462 1463 1464 1465 1466 1466 1467 1469 1469 1471 1472 1473 1474 1475 1476 1477 1479 1480 1481 1483 1484 1484 1485 1485 1486 1486 1487 1488 1489 1490 1491 1491 1492 1493 1494 1495 1496 1498 1499 1500 1501 1501 1502 1504 1504 1505 1506 1507 1507 1508 1508 1508 1509 1509 1509 1509 1509 1509 1509 1510
1451 1452 1453 1454 1455 1456 1457 1459 1459 1461 1462 1463 1464 1464 1465 1466 1468 1469 1470 1471 1472 1473 1474 1475 1477 1478 1479 1481 1482 1483 1484 1484 1485 1485 1486 1486 1487 1488 1489 1490 1491 1491 1492 1493 1494 1495 1497 1498 1499 1499 1500 1501 1502 1504 1504 1505 1506 1506 1506 1507 1507 1508 1508 1508 1508 1508 1508 1509 1509
1449 1450 1452 1453 1454 1455 1456 1457 1458 1459 1460 1461 1462 1464 1464 1465 1467 1468 1469 1470 1471 1473 1474 1475 1476 1478 1479 1480 1481 1482 1483 1484 1484 1485 1485 1486 1487 1487 1488 1489 1490 1491 1491 1492 1493 1494 1496 1497 1498 1499 1499 1500 1501 1502 1503 1504 1504 1505 1505 1506 1506 1506 1506 1506 1507 1507 1507 1507 1507
1448 1449 1450 1451 1452 1453 1454 1455 1456 1458 1459 1460 1461 1463 1464 1464 1465 1467 1468 1469 1471 1472 1473 1474 1475 1477 1479 1480 1481 1482 1482 1483 1484 1484 1485 1485 1486 1487 1488 1489 1489 1490 1490 1491 1492 1494 1495 1496 1497 1498 1499 1499 1500 1501 1502 1503 1503 1504 1504 1504 1504 1504 1504 1505 1506 1506 1506 1506 1506
1446 1447 1448 1449 1450 1451 1452 1454 1455 1457 1458 1459 1460 1462 1463 1464 1464 1466 1467 1468 1469 1470 1472 1473 1475 1476 1478 1479 1480 1481 1481 1482 1483 1483 1484 1485 1485 1486 1487 1488 1489 1489 1490 1490 1492 1493 1494 1495 1496 1497 1497 1498 1499 1500 1501 1501 1502 1502 1502 1503 1503 1504 1504 1504 1504 1505 1505 1505 1505
1444 1445 1446 1448 1449 1450 1452 1453 1454 1456 1457 1458 1459 1460 1461 1462 1463 1464 1466 1467 1468 1470 1471 1473 1474 1476 1477 1478 1479 1480 1481 1481 1482 1483 1483 1484 1485 1486 1487 1487 1488 1489 1489 1490 1491 1492 1493 1494 1494 1495 1496 1497 1498 1499 1500 1500 1500 1501 1501 1502 1502 1503 1503 1503 1504 1504 1504 1504 1504
1442 1444 1445 1446 1448 1449 1451 1452 1453 1455 1456 1457 1458 1459 1460 1461 1462 1463 1464 1466 1468 1469 1470 1472 1473 1475 1476 1478 1478 1479 1480 1480 1481 1482 1483 1483 1484 1485 1486 1487 1487 1488 1488 1489 1490 1491 1492 1493 1493 1494 1494 1496 1497 1499 1499 1499 1499 1500 1500 1501 1502 1502 1502 1502 1503 1503 1503 1503 1503
1441 1443 1444 1445 1447 1448 1449 1451 1452 1453 1454 1455 1457 1458 1459 1460 1461 1462 1464 1466 1467 1468 1469 1471 1473 1474 1475 1477 1478 1478 1479 1479 1480 1481 1482 1483 1483 1484 1485 1486 1486 1487 1488 1489 1490 1490 1491 1491 1492 1493 1494 1495 1497 1498 1498 1498 1499 1499 1500 1501 1501 1501 1501 1501 1501 1502 1502 1502 1502
1440 1441 1443 1444 1445 1447 1448 1449 1451 1452 1453 1454 1455 1457 1458 1459 1460 1462 1463 1464 1466 1467 1469 1470 1472 1473 1474 1476 1477 1477 1478 1479 1479 1480 1481 1482 1483 1484 1484 1485 1485 1486 1487 1488 1489 1490 1490 1491 1491 1492 1494 1495 1496 1497 1497 1497 1498 1499 1499 1499 1500 1500 1500 1500 1501 1501 1501 1501 1501
1438 1439 1441 1443 1444 1445 1447 1449 1450 1451 1452 1453 1454 1456 1457 1458 1459 1461 1462 1464 1465 1467 1468 1469 1471 1472 1474 1475 1476 1477 1477 1478 1479 1479 1480 1481 1482 1483 1483 1484 1485 1486 1487 1488 1488 1489 1489 1490 1491 1492 1494 1494 1495 1495 1495 1496 1497 1498 1498 1498 1499 1499 1499 1500 1500 1500 1500 1500 1500
1436 1438 1439 1441 1443 1444 1446 1448 1449 1450 1451 1453 1454 1454 1456 1457 1458 1460 1462 1463 1464 1466 1467 1469 1470 1472 1473 1474 1475 1476 1476 1477 1478 1479 1479 1480 1481 1482 1483 1483 1484 1485 1486 1487 1487 1488 1489 1489 1491 1492 1493 1493 1493 1494 1494 1496 1496 1497 1497 1497 1498 1498 1499 1499 1499 1499 1499 1499 1500
1435 1436 1438 1440 1441 1443 1445 1446 1448 1449 1450 1451 1452 1453 1454 1456 1457 1459 1461 1462 1464 1465 1466 1468 1469 1471 1472 1473 1474 1475 1476 1476 1477 1478 1479 1479 1480 1481 1482 1483 1484 1484 1485 1486 1486 1487 1488 1489 1490 1491 1492 1492 1493 1493 1494 1495 1495 1496 1496 1496 1497 1498 1498 1498 1499 1499 1499 1499 1499
1434 1435 1437 1439 1440 1442 1444 1445 1446 1448 1449 1450 1451 1452 1453 1455 1456 1458 1460 1461 1463 1464 1466 1467 1469 1470 1471 1472 1473 1474 1475 1475 1476 1477 1478 1479 1479 1480 1481 1482 1483 1484 1484 1485 1486 1486 1487 1488 1489 1490 1491 1492 1492 1493 1494 1494 1495 1495 1495 1496 1496 1497 1497 1497 1498 1498 1498 1498 1498
1432 1434 1436 1437 1439 1441 1442 1444 1445 1446 1447 1448 1449 1450 1452 1454 1456 1457 1459 1460 1462 1464 1465 1467 1468 1469 1470 1471 1472 1473 1474 1475 1475 1476 1477 1478 1479 1479 1480 1481 1482 1483 1484 1484 1485 1486 1487 1488 1489 1489 1490 1491 1492 1492 1493 1494 1494 1494 1494 1495 1495 1496 1496 1497 1497 1497 1497 1497 1497
1431 1433 1434 1436 1438 1439 1441 1443 1444 1445 1446 1447 1448 1449 1451 1453 1454 1456 1458 1459 1461 1463 1464 1466 1467 1468 1469 1470 1471 1472 1473 1474 1474 1475 1476 1477 1478 1479 1480 1481 1482 1483 1483 1484 1485 1486 1487 1487 1488 1489 1489 1490 1491 1492 1492 1493 1493 1493 1494 1494 1495 1495 1495 1495 1496 1496 1496 1496 1497
1429 1431 1433 1435 1436 1438 1439 1441 1442 1443 1444 1445 1447 1448 1450 1452 1454 1455 1457 1459 1460 1462 1464 1465 1466 1468 1469 1470 1471 1472 1472 1473 1474 1475 1475 1476 1477 1478 1479 1480 1481 1482 1483 1484 1485 1485 1486 1486 1487 1488 1489 1490 1490 1491 1491 1492 1492 1493 1493 1494 1494 1494 1494 1494 1495 1495 1495 1496 1496
1428 1429 1431 1433 1435 1436 1438 1439 1441 1442 1443 1444 1446 1447 1449 1451 1453 1454 1456 1458 1459 1461 1463 1464 1465 1467 1468 1469 1470 1471 1472 1472 1473 1474 1475 1476 1477 1478 1479 1480 1481 1481 1482 1483 1484 1484 1485 1486 1487 1488 1489 1489 1490 1490 1491 1491 1492 1492 1493 1493 1493 1493 1494 1494 1494 1495 1495 1495 1495
1426 1428 1429 1431 1433 1434 1436 1438 1439 1440 1441 1443 1444 1446 1448 1450 1452 1454 1455 1457 1459 1460 1462 1463 1464 1466 1467 1468 1469 1470 1471 1472 1473 1474 1475 1476 1477 1478 1479 1479 1480 1481 1481 1482 1483 1484 1484 1485 1486 1487 1488 1489 1489 1489 1490 1491 1491 1492 1492 1492 1492 1493 1493 1494 1494 1494 1494 1495 1494
1424 1426 1428 1429 1431 1433 1434 1436 1437 1439 1440 1442 1444 1445 1447 1449 1451 1453 1454 1456 1458 1459 1461 1462 1464 1465 1466 1467 1468 1469 1470 1471 1473 1474 1474 1475 1476 1477 1478 1479 1479 1480 1481 1482 1483 1484 1484 1485 1486 1487 1488 1488 1489 1489 1490 1490 1491 1491 1491 1491 1492 1492 1493 1493 1494 1494 1494 1494 1494
1422 1424 1426 1428 1429 1431 1433 1434 1436 1437 1439 1442 1443 1444 1446 1448 1450 1452 1454 1455 1457 1459 1460 1461 1463 1464 1465 1467 1468 1469 1470 1471 1472 1473 1474 1475 1476 1476 1477 1478 1479 1479 1480 1481 1482 1483 1484 1485 1486 1486 1487 1488 1488 1489 1489 1490 1490 1490 1490 1491 1491 1492 1493 1493 1493 1493 1493 1493 1493
1421 1423 1424 1426 1428 1430 1431 1433 1434 1437 1439 1441 1442 1444 1445 1447 1449 1451 1453 1454 1456 1458 1459 1460 1462 1464 1465 1466 1467 1469 1470 1471 1472 1473 1474 1474 1475 1476 1476 1477 1478 1479 1480 1481 1482 1483 1484 1485 1485 1486 1487 1487 1488 1489 1489 1489 1489 1489 1490 1490 1491 1492 1492 1492 1493 1493 1492 1492 1492
1419 1422 1424 1426 1427 1429 1431 1432 1434 1436 1438 1440 1441 1443 1444 1446 1448 1450 1452 1454 1455 1457 1458 1460 1462 1463 1464 1465 1467 1468 1469 1470 1471 1472 1473 1474 1474 1475 1476 1477 1478 1479 1479 1480 1481 1482 1483 1484 1485 1486 1486 1487 1487 1488 1488 1488 1489 1489 1489 1490 1491 1491 1492 1492 1492 1492 1492 1492 1491
1419 1421 1424 1425 1427 1428 1430 1432 1434 1436 1438 1439 1440 1442 1444 1445 1447 1449 1451 1453 1454 1456 1458 1459 1461 1463 1464 1465 1466 1468 1469 1469 1471 1472 1472 1473 1474 1475 1476 1477 1478 1479 1479 1480 1481 1482 1483 1484 1484 1485 1485 1486 1486 1487 1487 1488 1488 1489 1489 1490 1490 1491 1491 1491 1491 1491 1491 1491 1491
1418 1420 1423 1424 1426 1428 1430 1432 1434 1435 1437 1438 1439 1441 1443 1444 1446 1448 1450 1452 1453 1455 1457 1459 1460 1462 1463 1464 1466 1467 1468 1469 1470 1471 1472 1472 1473 1474 1475 1476 1477 1478 1479 1480 1481 1481 1482 1483 1484 1484 1484 1485 1485 1486 1487 1487 1488 1488 1489 1489 1490 1490 1490 1490 1490 1490 1490 1490 1490
1417 1419 1422 1424 1425 1427 1429 1431 1433 1434 1436 1437 1439 1440 1442 1444 1445 1447 1449 1451 1453 1455 1457 1458 1459 1461 1462 1464 1465 1466 1467 1469 1469 1470 1471 1472 1473 1474 1475 1476 1477 1478 1479 1480 1481 1481 1482 1483 1483 1484 1484 1484 1485 1485 1486 1487 1488 1488 1489 1489 1489 1489 1489 1489 1489 1489 1489 1489 1489
1416 1419 1420 1422 1424 1426 1428 1429 1431 1433 1435 1437 1438 1439 1441 1443 1444 1446 1448 1450 1452 1454 1455 1457 1459 1460 1462 1463 1464 1466 1467 1468 1469 1469 1470 1471 1472 1474 1475 1476 1477 1478 1479 1479 1480 1481 1482 1482 1483 1483 1483 1484 1485 1485 1486 1487 1487 1488 1488 1488 1489 1489 1489 1489 1489 1489 1489 1489 1489
1415 1417 1419 1421 1423 1424 1427 1429 1430 1432 1434 1435 1437 1439 1440 1442 1444 1446 1448 1449 1451 1453 1454 1456 1458 1459 1461 1462 1464 1465 1466 1467 1468 1469 1470 1471 1472 1473 1474 1475 1476 1478 1479 1479 1480 1481 1481 1482 1482 1483 1483 1484 1485 1485 1486 1487 1487 1487 1487 1488 1488 1488 1488 1488 1488 1488 1488 1488 1489
1413 1415 1417 1419 1421 1424 1425 1427 1429 1431 1433 1434 1436 1438 1440 1442 1444 1445 1447 1449 1450 1452 1454 1455 1457 1459 1460 1461 1463 1464 1465 1466 1467 1468 1469 1471 1472 1473 1474 1475 1476 1477 1478 1479 1480 1480 1481 1481 1482 1483 1483 1484 1485 1485 1486 1486 1486 1486 1487 1487 1487 1487 1487 1487 1487 1488 1488 1489 1489
1411 1413 1416 1418 1420 1422 1424 1426 1428 1429 1432 1434 1436 1438 1439 1441 1443 1444 1446 1447 1449 1451 1453 1454 1456 1458 1459 1460 1462 1463 1464 1465 1466 1468 1469 1470 1471 1473 1474 1475 1476 1477 1478 1479 1479 1480 1480 1481 1482 1483 1483 1484 1484 1485 1485 1485 1486 1486 1486 1486 1487 1487 1487 1487 1487 1488 1488 1489 1489
1409 1412 1414 1416 1418 1420 1422 1424 1426 1429 1431 1433 1435 1437 1439 1441 1442 1444 1445 1446 1448 1450 1452 1454 1455 1457 1458 1459 1461 1462 1463 1464 1466 1467 1469 1470 1471 1472 1474 1474 1476 1477 1478 1479 1479 1479 1480 1481 1482 1482 1483 1484 1484 1484 1485 1485 1485 1485 1486 1486 1486 1486 1486 1487 1487 1488 1488 1489 1489
1408 1410 1413 1414 1417 1419 1421 1423 1425 1428 1430 1432 1434 1436 1438 1440 1441 1443 1444 1446 1448 1450 1451 1453 1454 1456 1458 1459 1460 1461 1463 1464 1465 1467 1468 1469 1471 1472 1473 1474 1475 1477 1477 1478 1479 1479 1480 1481 1482 1482 1483 1484 1484 1484 1484 1484 1484 1485 1485 1485 1485 1486 1486 1487 1487 1488 1489 1489 1489
1407 1409 1411 1413 1415 1418 1420 1422 1424 1427 1429 1432 1434 1435 1437 1439 1440 1442 1444 1446 1448 1449 1451 1453 1454 1455 1457 1458 1459 1461 1462 1464 1465 1466 1468 1469 1470 1472 1473 1474 1475 1476 1477 1478 1478 1479 1480 1481 1481 1482 1483 1483 1484 1484 1484 1484 1484 1484 1485 1485 1485 1486 1486 1487 1487 1488 1489 1489 1489
1406 1408 1410 1412 1414 1416 1419 1421 1424 1426 1429 1431 1433 1434 1436 1438 1440 1442 1444 1445 1447 1449 1450 1452 1453 1455 1456 1458 1459 1460 1462 1463 1465 1466 1468 1469 1470 1471 1473 1474 1475 1476 1476 1477 1478 1479 1480 1480 1481 1482 1482 1483 1483 1483 1483 1484 1484 1484 1484 1485 1485 1486 1486 1487 1488 1488 1489 1489 1489
1404 1407 1409 1411 1413 1415 1418 1420 1423 1425 1428 1430 1432 1434 1435 1437 1439 1441 1443 1445 1447 1449 1450 1452 1453 1454 1456 1457 1459 1460 1461 1463 1464 1466 1467 1469 1470 1471 1472 1474 1474 1475 1476 1477 1478 1479 1480 1480 1481 1481 1482 1482 1483 1483 1483 1483 1484 1484 1484 1485 1485 1486 1487 1487 1488 1488 1489 1489 1489
1403 1405 1408 1410 1412 1414 1417 1420 1422 1424 1427 1429 1431 1433 1434 1436 1439 1441 1443 1445 1447 1448 1450 1451 1452 1454 1455 1457 1458 1460 1461 1463 1464 1466 1467 1469 1470 1471 1472 1473 1474 1475 1476 1477 1478 1479 1479 1480 1480 1481 1481 1482 1482 1482 1483 1483 1484 1484 1484 1485 1485 1486 1487 1487 1488 1488 1488 1489 1489
1402 1404 1406 1409 1411 1414 1416 1419 1421 1424 1426 1428 1430 1432 1434 1436 1438 1441 1443 1444 1446 1447 1449 1450 1452 1453 1455 1457 1458 1460 1461 1463 1464 1465 1467 1469 1469 1471 1472 1473 1474 1475 1476 1477 1478 1479 1479 1480 1480 1481 1481 1481 1482 1482 1483 1483 1484 1484 1484 1485 1486 1486 1487 1487 1488 1488 1488 1488 1488
1401 1403 1405 1408 1410 1413 1415 1418 1420 1423 1425 1427 1429 1431 1433 1436 1438 1440 1442 1444 1445 1447 1448 1449 1451 1453 1454 1456 1458 1460 1461 1463 1464 1465 1467 1468 1469 1470 1471 1473 1474 1475 1476 1477 1478 1479 1479 1480 1480 1480 1481 1481 1482 1482 1482 1483 1484 1484 1485 1485 1486 1486 1487 1487 1487 1488 1488 1488 1488
1400 1403 1405 1407 1410 1412 1415 1417 1419 1421 1424 1426 1428 1430 1433 1435 1438 1440 1442 1444 1445 1446 1447 1449 1450 1452 1454 1456 1458 1459 1461 1463 1464 1465 1467 1468 1469 1470 1471 1473 1474 1475 1476 1477 1478 1479 1479 1479 1480 1480 1481 1481 1481 1482 1483 1483 1484 1484 1485 1485 1486 1486 1487 1487 1487 1487 1488 1488 1488
1400 1402 1404 1407 1409 1412 1414 1416 1418 1420 1422 1424 1427 1430 1433 1435 1438 1440 1442 1443 1445 1446 1447 1449 1450 1452 1454 1456 1458 1459 1461 1463 1464 1465 1467 1468 1469 1471 1472 1473 1474 1475 1476 1477 1478 1478 1479 1479 1480 1480 1481 1481 1482 1482 1483 1483 1484 1484 1485 1485 1486 1486 1486 1487 1487 1487 1488 1488 1488
1400 1402 1404 1406 1409 1411 1413 1415 1417 1419 1421 1423 1426 1429 1432 1435 1437 1439 1441 1443 1444 1446 1447 1449 1450 1452 1454 1456 1457 1459 1460 1462 1464 1465 1467 1468 1470 1471 1472 1473 1474 1475 1476 1477 1478 1478 1479 1479 1479 1480 1481 1481 1482 1482 1483 1484 1484 1484 1485 1485 1486 1486 1486 1487 1487 1487 1488 1487 1487
1399 1402 1404 1406 1408 1410 1412 1414 1416 1418 1420 1423 1425 1429 1431 1434 1436 1438 1440 1442 1444 1445 1447 1449 1450 1452 1454 1455 1457 1459 1460 1462 1464 1465 1467 1469 1470 1471 1473 1474 1474 1475 1476 1477 1477 1478 1479 1479 1479 1480 1481 1481 1482 1483 1483 1484 1484 1484 1485 1485 1486 1486 1486 1487 1487 1487 1487 1487 1487